Time,TemperatureF,DewpointF,PressureIn,WindDirection,WindDirectionDegrees,WindSpeedMPH,WindSpeedGustMPH,Humidity,HourlyPrecipIn,Conditions,Clouds,dailyrainin,SoftwareType,DateUTC
2013-08-16 00:02:00,63.0,52.0,-100.00,WSW,255,2.0,6.0,67,0.00,,,-99.99,,2013-08-16 05:02:00,
2013-08-16 00:12:00,63.0,52.0,-100.00,WSW,255,2.0,6.0,67,0.00,,,-99.99,,2013-08-16 05:12:00,
2013-08-16 02:52:00,60.0,54.0,-100.00,South,185,1.0,3.0,79,0.00,,,-99.99,,2013-08-16 07:52:00,
2013-08-16 03:01:00,60.0,54.0,-100.00,South,185,1.0,3.0,79,0.00,,,-99.99,,2013-08-16 08:01:00,
2013-08-16 03:11:00,60.0,54.0,-100.00,South,185,1.0,3.0,79,0.00,,,-99.99,,2013-08-16 08:11:00,
2013-08-16 03:52:00,59.0,54.0,-100.00,WNW,295,3.0,7.0,84,0.00,,,-99.99,,2013-08-16 08:52:00,
2013-08-16 04:01:00,59.0,54.0,-100.00,WNW,295,3.0,7.0,84,0.00,,,-99.99,,2013-08-16 09:01:00,
2013-08-16 04:11:00,59.0,54.0,-100.00,WNW,295,3.0,7.0,84,0.00,,,-99.99,,2013-08-16 09:11:00,
2013-08-16 04:53:00,59.0,53.0,-100.00,West,265,3.0,6.0,82,0.00,,,-99.99,,2013-08-16 09:53:00,
2013-08-16 05:03:00,59.0,53.0,-100.00,West,265,3.0,6.0,82,0.00,,,-99.99,,2013-08-16 10:03:00,
2013-08-16 05:13:00,59.0,53.0,-100.00,West,265,3.0,6.0,82,0.00,,,-99.99,,2013-08-16 10:13:00,
2013-08-16 05:53:00,59.0,54.0,-100.00,NW,310,4.0,9.0,84,0.00,,,-99.99,,2013-08-16 10:53:00,
2013-08-16 06:02:00,59.0,54.0,-100.00,NW,310,4.0,9.0,84,0.00,,,-99.99,,2013-08-16 11:02:00,
2013-08-16 06:12:00,59.0,54.0,-100.00,NW,310,4.0,9.0,84,0.00,,,-99.99,,2013-08-16 11:12:00,
2013-08-16 06:52:00,57.0,53.0,-100.00,SE,135,1.0,3.0,86,0.00,,,-99.99,,2013-08-16 11:52:00,
2013-08-16 07:02:00,57.0,53.0,-100.00,SE,135,1.0,3.0,86,0.00,,,-99.99,,2013-08-16 12:02:00,
2013-08-16 07:12:00,57.0,53.0,-100.00,SE,135,1.0,3.0,86,0.00,,,-99.99,,2013-08-16 12:12:00,
2013-08-16 07:52:00,59.0,55.0,-100.00,NNE,30,1.0,2.0,86,0.00,,,-99.99,,2013-08-16 12:52:00,
2013-08-16 08:02:00,59.0,55.0,-100.00,NNE,30,1.0,2.0,86,0.00,,,-99.99,,2013-08-16 13:02:00,
2013-08-16 08:11:00,59.0,55.0,-100.00,NNE,30,1.0,2.0,86,0.00,,,-99.99,,2013-08-16 13:11:00,
2013-08-16 08:53:00,62.0,58.0,-100.00,SSE,155,2.0,3.0,85,0.00,,,-99.99,,2013-08-16 13:53:00,
2013-08-16 09:02:00,62.0,58.0,-100.00,SSE,155,2.0,3.0,85,0.00,,,-99.99,,2013-08-16 14:02:00,
2013-08-16 09:11:00,62.0,58.0,-100.00,SSE,155,2.0,3.0,85,0.00,,,-99.99,,2013-08-16 14:11:00,
2013-08-16 09:52:00,69.0,59.0,-100.00,SE,145,2.0,4.0,70,0.00,,,-99.99,,2013-08-16 14:52:00,
2013-08-16 10:01:00,69.0,59.0,-100.00,SE,145,2.0,4.0,70,0.00,,,-99.99,,2013-08-16 15:01:00,
2013-08-16 10:12:00,69.0,59.0,-100.00,SE,145,2.0,4.0,70,0.00,,,-99.99,,2013-08-16 15:12:00,
2013-08-16 10:56:00,75.0,53.0,-100.00,North,0,3.0,9.0,47,0.00,,,-99.99,,2013-08-16 15:56:00,
2013-08-16 11:04:00,75.0,53.0,-100.00,North,0,3.0,9.0,47,0.00,,,-99.99,,2013-08-16 16:04:00,
2013-08-16 11:13:00,75.0,53.0,-100.00,North,0,3.0,9.0,47,0.00,,,-99.99,,2013-08-16 16:13:00,
2013-08-16 11:57:00,78.0,51.0,-100.00,East,80,3.0,6.0,40,0.00,,,-99.99,,2013-08-16 16:57:00,
2013-08-16 12:03:00,78.0,51.0,-100.00,East,80,3.0,6.0,40,0.00,,,-99.99,,2013-08-16 17:03:00,
2013-08-16 12:12:00,78.0,51.0,-100.00,East,80,3.0,6.0,40,0.00,,,-99.99,,2013-08-16 17:12:00,
2013-08-16 13:00:00,81.0,46.0,-100.00,NNW,335,4.0,7.0,29,0.00,,,-99.99,,2013-08-16 18:00:00,
2013-08-16 13:06:00,81.0,46.0,-100.00,NNW,335,4.0,7.0,29,0.00,,,-99.99,,2013-08-16 18:06:00,
2013-08-16 13:15:00,81.0,46.0,-100.00,NNW,335,4.0,7.0,29,0.00,,,-99.99,,2013-08-16 18:15:00,
2013-08-16 13:50:00,-999.0,-99.9,-100.00,WSW,240,4.0,9.0,30,0.00,,,-99.99,,2013-08-16 18:50:00,
2013-08-16 14:03:00,81.0,47.0,-100.00,WSW,240,4.0,9.0,30,0.00,,,-99.99,,2013-08-16 19:03:00,
2013-08-16 14:14:00,81.0,47.0,-100.00,WSW,240,4.0,9.0,30,0.00,,,-99.99,,2013-08-16 19:14:00,
2013-08-16 14:55:00,82.0,45.0,-100.00,West,260,7.0,9.0,28,0.00,,,-99.99,,2013-08-16 19:55:00,
2013-08-16 15:02:00,82.0,45.0,-100.00,West,260,7.0,9.0,28,0.00,,,-99.99,,2013-08-16 20:02:00,
2013-08-16 15:11:00,82.0,45.0,-100.00,West,260,7.0,9.0,28,0.00,,,-99.99,,2013-08-16 20:11:00,
2013-08-16 15:52:00,80.0,45.0,-100.00,NW,310,1.0,4.0,30,0.00,,,-99.99,,2013-08-16 20:52:00,
2013-08-16 16:01:00,80.0,45.0,-100.00,NW,310,1.0,4.0,30,0.00,,,-99.99,,2013-08-16 21:01:00,
2013-08-16 16:11:00,80.0,45.0,-100.00,NW,310,1.0,4.0,30,0.00,,,-99.99,,2013-08-16 21:11:00,
2013-08-16 16:54:00,82.0,44.0,-100.00,ENE,65,2.0,6.0,27,0.00,,,-99.99,,2013-08-16 21:54:00,
2013-08-16 17:07:00,82.0,44.0,-100.00,ENE,65,2.0,6.0,27,0.00,,,-99.99,,2013-08-16 22:07:00,
2013-08-16 17:13:00,82.0,44.0,-100.00,ENE,65,2.0,6.0,27,0.00,,,-99.99,,2013-08-16 22:13:00,
2013-08-16 17:52:00,81.0,43.0,-100.00,SW,220,4.0,7.0,26,0.00,,,-99.99,,2013-08-16 22:52:00,
2013-08-16 18:09:00,81.0,43.0,-100.00,SW,220,4.0,7.0,26,0.00,,,-99.99,,2013-08-16 23:09:00,
2013-08-16 18:52:00,80.0,44.0,-100.00,SW,220,2.0,6.0,28,0.00,,,-99.99,,2013-08-16 23:52:00,
2013-08-16 19:02:00,80.0,44.0,-100.00,SW,220,2.0,6.0,28,0.00,,,-99.99,,2013-08-17 00:02:00,
2013-08-16 19:11:00,80.0,44.0,-100.00,SW,220,2.0,6.0,28,0.00,,,-99.99,,2013-08-17 00:11:00,
2013-08-16 19:52:00,76.0,56.0,-100.00,WSW,240,0.0,3.0,49,0.00,,,-99.99,,2013-08-17 00:52:00,
2013-08-16 20:01:00,76.0,56.0,-100.00,WSW,240,0.0,3.0,49,0.00,,,-99.99,,2013-08-17 01:01:00,
2013-08-16 20:11:00,76.0,56.0,-100.00,WSW,240,0.0,3.0,49,0.00,,,-99.99,,2013-08-17 01:11:00,
2013-08-16 20:52:00,69.0,56.0,-100.00,West,275,1.0,2.0,63,0.00,,,-99.99,,2013-08-17 01:52:00,
2013-08-16 21:01:00,69.0,56.0,-100.00,West,275,1.0,2.0,63,0.00,,,-99.99,,2013-08-17 02:01:00,
2013-08-16 21:11:00,69.0,56.0,-100.00,West,275,1.0,2.0,63,0.00,,,-99.99,,2013-08-17 02:11:00,
2013-08-16 21:52:00,66.0,56.0,-100.00,SW,215,0.0,1.0,71,0.00,,,-99.99,,2013-08-17 02:52:00,
2013-08-16 22:02:00,66.0,56.0,-100.00,SW,215,0.0,1.0,71,0.00,,,-99.99,,2013-08-17 03:02:00,
2013-08-16 22:11:00,66.0,56.0,-100.00,SW,215,0.0,1.0,71,0.00,,,-99.99,,2013-08-17 03:11:00,
2013-08-16 22:53:00,63.0,56.0,-100.00,SSE,165,1.0,3.0,79,0.00,,,-99.99,,2013-08-17 03:53:00,
2013-08-16 23:03:00,63.0,56.0,-100.00,SSE,165,1.0,3.0,79,0.00,,,-99.99,,2013-08-17 04:03:00,
2013-08-16 23:12:00,63.0,56.0,-100.00,SSE,165,1.0,3.0,79,0.00,,,-99.99,,2013-08-17 04:12:00,
2013-08-16 23:53:00,60.0,55.0,-100.00,West,265,0.0,1.0,84,0.00,,,-99.99,,2013-08-17 04:53:00,